Powrót do katalogu

STARLINK-35969

AktywnyŁącznośćVLEO
NORAD 66523·PAYLOAD·🇺🇸 United States

Wystrzelony Nov 19, 2025 z Cape Canaveral Space Force Station

Loading…

Następne Przeloty (najbliższe 24 godziny)

TLE

ŚwieżeSource: CelesTrak SupGP

Epoka: Sep 15, 2026, 02:42 UTC

1 66523C 25265H   26258.11298611  .00015584  00000+0  56432-3 0  2587
2 66523  43.0002 288.1135 0001406 267.1120 103.9874 15.27578079    15

Śledź STARLINK-35969 w czasie rzeczywistym z AllMySat

Download on the App Store